Home   Weather   Abbotsford   Past weeks
Flag for Canada

Past Weather in Abbotsford, British Columbia, Canada — Yesterday and Last 2 Weeks

Now
32 °F

Overcast.


Feels Like: 25 °F
Forecast: 38 / 25 °F
Wind: 8 mph from East

Location: Abbotsford

Current Time: Feb 18, 2019 at 2:50:28 pm

Latest Report: Feb 18, 2019 at 2:00 pm


Visibility: 20 mi

Pressure: 30.40 "Hg

Humidity: 60%

Dew Point: 19 °F

Location of AbbotsfordLocation

Past Weather in Abbotsford — Graph

°F

Abbotsford Temperature Yesterday

Maximum temperature yesterday: 45 °F (at 3:00 pm)
Minimum temperature yesterday: 28 °F (at 4:00 am)
Average temperature yesterday: 36 °F

High & Low Weather Summary for the Past Weeks

 TemperatureHumidityPressure
High45 °F (Feb 17, 3:00 pm)100% (Feb 13, 2:00 am)30.43 "Hg (Feb 13, 2:00 am)
Low16 °F (Feb 3, 8:00 pm)26% (Feb 9, 1:00 pm)29.16 "Hg (Feb 14, 4:00 pm)
Average27 °F64%29.86 "Hg
* Reported Feb 3 1:00 pm — Feb 18 1:00 pm, Abbotsford. Weather by CustomWeather, © 2019

Note: Actual official high and low records may vary slightly from our data, if they occured in-between our weather recording intervals... More about our weather records

Advertising

Abbotsford Weather History for the Previous 24 Hours

Scroll right to see more
 ConditionsComfort  
Time TempWeatherWind HumidityBarometerVisibility
1:00 pm
Mon, Feb 18
32 °FOvercast.6 mph55%30.41 "Hg20 mi
12:00 pm32 °FMore clouds than sun.9 mph55%30.43 "Hg20 mi
11:00 am32 °FMore clouds than sun.9 mph55%30.43 "Hg20 mi
10:00 am30 °FMore clouds than sun.13 mph55%30.42 "Hg20 mi
9:00 am30 °FMore clouds than sun.12 mph55%30.42 "Hg20 mi
8:00 am30 °FMostly cloudy.9 mph55%30.42 "Hg20 mi
7:00 am30 °FMostly cloudy.7 mph55%30.40 "Hg15 mi
6:00 am30 °FMostly cloudy.9 mph55%30.40 "Hg10 mi
5:00 am32 °FPassing clouds.10 mph51%30.40 "Hg10 mi
4:00 am32 °FOvercast.9 mph51%30.39 "Hg10 mi
3:00 am32 °FOvercast.9 mph55%30.38 "Hg10 mi
2:00 am34 °FPassing clouds.12 mph48%30.38 "Hg10 mi
1:00 am34 °FPartly cloudy.10 mph51%30.37 "Hg15 mi
12:00 am34 °FPassing clouds.9 mph51%30.36 "Hg15 mi
11:00 pm
Sun, Feb 17
36 °FPassing clouds.7 mph48%30.35 "Hg15 mi
10:00 pm36 °FPartly cloudy.8 mph52%30.33 "Hg15 mi
9:00 pm37 °FPartly cloudy.8 mph48%30.31 "Hg10 mi
8:00 pm36 °FPassing clouds.3 mph60%30.30 "Hg10 mi
7:00 pm37 °FPassing clouds.5 mph52%30.29 "Hg15 mi
6:00 pm41 °FPassing clouds.9 mph45%30.27 "Hg30 mi
5:00 pm43 °FPartly sunny.5 mph42%30.25 "Hg30 mi
4:00 pm43 °FPartly sunny.5 mph42%30.24 "Hg30 mi
3:00 pm45 °FScattered clouds.No wind42%30.22 "Hg30 mi
2:00 pm43 °FPassing clouds.7 mph49%30.22 "Hg30 mi
Weather by CustomWeather, © 2019

See weather overview